Voltar ao catálogo

SL-3 R/B

AtivoPO
NORAD 7575·ROCKET BODY·🇷🇺 Russia

Lançado Dec 17, 1974 de Plesetsk Cosmodrome

Loading…

Próximas Passagens (próximas 24 horas)

TLE

AtualizadoSource: Space-Track

Época: Sep 14, 2026, 05:23 UTC

1 07575U 74099B   26257.22479965 -.00000096  00000-0 -59515-4 0  9995
2 07575  81.2419 261.6963 0050661  57.6195 302.9865 14.11589710662548

Acompanhe SL-3 R/B em tempo real com AllMySat

Download on the App Store